| time (UTC) | temp C | wind direction | speed KPH | gust KPH | rain 1hr cm | rain 24hr cm | rain mn cm | humidity % | barometer mb |
| 20260506051005 | 7 | 39 | 1.6 | 11.3 | 0.00 | 0.00 | 0.00 | 58 | 1009.3 |
| 20260506045005 | 7 | 46 | 0.0 | 1.6 | 0.00 | 0.00 | 0.00 | 63 | 1009.3 |
| 20260506044005 | 7 | 13 | 0.0 | 1.6 | 0.00 | 0.00 | 0.00 | 62 | 1009.3 |
| 20260506043007 | 7 | 28 | 0.0 | 1.6 | 0.00 | 0.00 | 0.00 | 62 | 1009.3 |
| 20260506042006 | 7 | 8 | 0.0 | 9.7 | 0.00 | 0.00 | 0.00 | 62 | 1009.3 |
| 20260506041008 | 7 | 6 | 0.0 | 4.8 | 0.00 | 0.00 | 0.00 | 61 | 1009.3 |
| 20260506040010 | 7 | 21 | 0.0 | 8.0 | 0.00 | 0.00 | 0.00 | 60 | 1009.3 |
| 20260506035008 | 6 | 30 | 0.0 | 4.8 | 0.00 | 0.00 | 0.00 | 61 | 1009.3 |
| 20260506034006 | 6 | 19 | 0.0 | 4.8 | 0.00 | 0.00 | 0.00 | 63 | 1009.3 |
| 20260506033009 | 6 | 49 | 0.0 | 8.0 | 0.00 | 0.00 | 0.00 | 62 | 1009.3 |
| 20260506032006 | 6 | 28 | 1.6 | 8.0 | 0.00 | 0.00 | 0.00 | 62 | 1009.3 |
| 20260506031006 | 6 | 37 | 0.0 | 11.3 | 0.00 | 0.00 | 0.00 | 62 | 1009.3 |
| 20260506030008 | 6 | 26 | 0.0 | 11.3 | 0.00 | 0.00 | 0.00 | 62 | 1009.3 |
| 20260506025005 | 6 | 27 | 0.0 | 3.2 | 0.00 | 0.00 | 0.00 | 62 | 1009.3 |
| 20260506024006 | 6 | 38 | 0.0 | 9.7 | 0.00 | 0.00 | 0.00 | 61 | 1009.5 |
| 20260506023008 | 6 | 45 | 0.0 | 4.8 | 0.00 | 0.00 | 0.00 | 63 | 1009.5 |
| 20260506022006 | 7 | 51 | 0.0 | 9.7 | 0.00 | 0.00 | 0.00 | 62 | 1009.6 |
| 20260506021006 | 7 | 42 | 0.0 | 3.2 | 0.00 | 0.00 | 0.00 | 62 | 1009.8 |
| 20260506020008 | 7 | 46 | 0.0 | 4.8 | 0.00 | 0.00 | 0.00 | 63 | 1009.8 |
| 20260506015005 | 7 | 45 | 0.0 | 4.8 | 0.00 | 0.00 | 0.00 | 65 | 1009.8 |
| 20260506014006 | 7 | 33 | 0.0 | 8.0 | 0.00 | 0.00 | 0.00 | 66 | 1009.8 |
| 20260506013008 | 7 | 29 | 0.0 | 8.0 | 0.00 | 0.00 | 0.00 | 68 | 1009.6 |
| 20260506012005 | 7 | 29 | 0.0 | 4.8 | 0.00 | 0.00 | 0.00 | 70 | 1009.6 |
| 20260506011006 | 7 | 31 | 0.0 | 8.0 | 0.00 | 0.00 | 0.00 | 72 | 1009.7 |
| 20260506010008 | 7 | 33 | 0.0 | 8.0 | 0.00 | 0.00 | 0.00 | 74 | 1009.6 |
| 20260506005006 | 7 | 33 | 0.0 | 8.0 | 0.00 | 0.00 | 0.00 | 76 | 1009.6 |
| 20260506004005 | 7 | 9 | 0.0 | 9.7 | 0.00 | 0.00 | 0.00 | 77 | 1009.4 |
| 20260506003008 | 7 | 2 | 0.0 | 3.2 | 0.00 | 0.00 | 0.00 | 77 | 1009.4 |
| 20260506002006 | 7 | 32 | 0.0 | 9.7 | 0.00 | 0.00 | 0.00 | 78 | 1009.4 |
| 20260506001006 | 7 | 9 | 0.0 | 11.3 | 0.00 | 0.00 | 0.00 | 78 | 1009.3 |
| 20260506000008 | 7 | 1 | 1.6 | 11.3 | 0.00 | 0.00 | 0.00 | 79 | 1009.3 |
| 20260505235006 | 7 | 358 | 1.6 | 9.7 | 0.00 | 0.00 | 0.00 | 79 | 1009.3 |
| 20260505234005 | 7 | 12 | 3.2 | 14.5 | 0.00 | 0.00 | 0.00 | 80 | 1009.3 |
| 20260505233008 | 7 | 2 | 1.6 | 11.3 | 0.00 | 0.00 | 0.00 | 81 | 1009.4 |
| 20260505232005 | 7 | 9 | 0.0 | 11.3 | 0.00 | 0.00 | 0.00 | 81 | 1009.4 |
| 20260505231005 | 7 | 8 | 1.6 | 11.3 | 0.00 | 0.00 | 0.00 | 82 | 1009.4 |
| 20260505230007 | 7 | 22 | 1.6 | 16.1 | 0.00 | 0.00 | 0.00 | 82 | 1009.4 |
| 20260505225006 | 7 | 23 | 1.6 | 16.1 | 0.00 | 0.00 | 0.00 | 82 | 1009.5 |
| 20260505224006 | 7 | 13 | 1.6 | 9.7 | 0.00 | 0.00 | 0.00 | 81 | 1009.6 |
| 20260505223008 | 7 | 8 | 1.6 | 4.8 | 0.00 | 0.00 | 0.00 | 81 | 1009.7 |
| 20260505222005 | 7 | 21 | 1.6 | 8.0 | 0.00 | 0.00 | 0.00 | 81 | 1009.8 |
| 20260505221005 | 7 | 7 | 3.2 | 11.3 | 0.00 | 0.00 | 0.00 | 81 | 1009.8 |
| 20260505220009 | 7 | 9 | 3.2 | 11.3 | 0.00 | 0.00 | 0.00 | 81 | 1009.8 |
| 20260505215006 | 7 | 4 | 4.8 | 14.5 | 0.00 | 0.00 | 0.00 | 80 | 1009.9 |
| 20260505214005 | 7 | 1 | 4.8 | 11.3 | 0.00 | 0.00 | 0.00 | 80 | 1009.9 |
| 20260505213009 | 7 | 9 | 4.8 | 14.5 | 0.00 | 0.00 | 0.00 | 79 | 1009.8 |
| 20260505212005 | 7 | 11 | 3.2 | 8.0 | 0.00 | 0.00 | 0.00 | 78 | 1009.9 |
| 20260505211006 | 7 | 10 | 1.6 | 8.0 | 0.00 | 0.00 | 0.00 | 77 | 1009.9 |
| 20260505210008 | 7 | 23 | 1.6 | 3.2 | 0.00 | 0.00 | 0.00 | 75 | 1009.9 |
| 20260505205005 | 7 | 13 | 0.0 | 4.8 | 0.00 | 0.00 | 0.00 | 74 | 1010.0 |
| 20260505204006 | 7 | 16 | 0.0 | 4.8 | 0.00 | 0.00 | 0.00 | 73 | 1009.9 |
| 20260505203008 | 7 | 10 | 1.6 | 8.0 | 0.00 | 0.00 | 0.00 | 72 | 1009.9 |
| 20260505202005 | 7 | 11 | 3.2 | 8.0 | 0.00 | 0.00 | 0.00 | 72 | 1009.9 |
| 20260505201006 | 7 | 8 | 3.2 | 9.7 | 0.00 | 0.00 | 0.00 | 70 | 1009.9 |
| 20260505200008 | 7 | 3 | 4.8 | 11.3 | 0.00 | 0.00 | 0.00 | 69 | 1009.8 |
| 20260505195005 | 7 | 11 | 1.6 | 9.7 | 0.00 | 0.00 | 0.00 | 67 | 1009.9 |
| 20260505194005 | 7 | 4 | 3.2 | 11.3 | 0.00 | 0.00 | 0.00 | 64 | 1009.9 |
| 20260505193009 | 7 | 357 | 4.8 | 11.3 | 0.00 | 0.00 | 0.00 | 62 | 1009.9 |
| 20260505192005 | 7 | 0 | 4.8 | 14.5 | 0.00 | 0.00 | 0.00 | 59 | 1009.9 |
| 20260505191006 | 8 | 358 | 4.8 | 11.3 | 0.00 | 0.00 | 0.00 | 57 | 1009.9 |
| 20260505190019 | 8 | 2 | 3.2 | 4.8 | 0.00 | 0.00 | 0.00 | 57 | 1009.8 |
| 20260505185005 | 8 | 13 | 0.0 | 4.8 | 0.00 | 0.00 | 0.00 | 55 | 1009.8 |
| 20260505184006 | 9 | 14 | 0.0 | 4.8 | 0.00 | 0.00 | 0.00 | 56 | 1009.8 |
| 20260505183008 | 9 | 3 | 1.6 | 8.0 | 0.00 | 0.00 | 0.00 | 55 | 1009.8 |
| 20260505182005 | 9 | 8 | 1.6 | 9.7 | 0.00 | 0.00 | 0.00 | 54 | 1009.8 |
| 20260505181006 | 10 | 0 | 4.8 | 11.3 | 0.00 | 0.00 | 0.00 | 52 | 1009.7 |
| 20260505180008 | 10 | 359 | 1.6 | 9.7 | 0.00 | 0.00 | 0.00 | 50 | 1009.6 |
| 20260505175005 | 10 | 358 | 1.6 | 9.7 | 0.00 | 0.00 | 0.00 | 54 | 1009.7 |
| 20260505174006 | 10 | 1 | 4.8 | 11.3 | 0.00 | 0.00 | 0.00 | 57 | 1009.7 |
| 20260505173009 | 10 | 359 | 8.0 | 12.9 | 0.00 | 0.00 | 0.00 | 55 | 1009.7 |
| 20260505172005 | 11 | 22 | 1.6 | 8.0 | 0.00 | 0.00 | 0.00 | 59 | 1009.7 |
| 20260505171005 | 11 | 356 | 4.8 | 12.9 | 0.00 | 0.00 | 0.00 | 57 | 1009.8 |
| 20260505170008 | 11 | 4 | 8.0 | 14.5 | 0.00 | 0.00 | 0.00 | 56 | 1009.7 |
| 20260505165006 | 11 | 1 | 8.0 | 16.1 | 0.00 | 0.00 | 0.00 | 56 | 1009.8 |
| 20260505164006 | 11 | 24 | 4.8 | 16.1 | 0.00 | 0.00 | 0.00 | 59 | 1009.7 |
| 20260505163009 | 11 | 0 | 3.2 | 16.1 | 0.00 | 0.00 | 0.00 | 58 | 1009.7 |
| 20260505162006 | 11 | 359 | 4.8 | 19.3 | 0.00 | 0.00 | 0.00 | 56 | 1009.6 |
| 20260505161006 | 11 | 355 | 8.0 | 22.5 | 0.00 | 0.00 | 0.00 | 62 | 1009.6 |
| 20260505153007 | 11 | 356 | 14.5 | 27.4 | 0.00 | 0.00 | 0.00 | 53 | 1009.8 |
| 20260505152006 | 11 | 353 | 19.3 | 27.4 | 0.00 | 0.00 | 0.00 | 51 | 1009.8 |
| 20260505151005 | 11 | 345 | 14.5 | 24.1 | 0.00 | 0.00 | 0.00 | 52 | 1009.8 |
| 20260505125006 | 12 | 349 | 11.3 | 22.5 | 0.00 | 0.00 | 0.00 | 64 | 1009.9 |
| 20260505124006 | 12 | 319 | 12.9 | 24.1 | 0.00 | 0.00 | 0.00 | 71 | 1009.9 |
| 20260505123008 | 11 | 313 | 11.3 | 27.4 | 0.00 | 0.00 | 0.00 | 74 | 1009.9 |
| 20260505122006 | 11 | 300 | 9.7 | 25.7 | 0.00 | 0.00 | 0.00 | 73 | 1009.9 |
| 20260505121005 | 11 | 296 | 12.9 | 27.4 | 0.00 | 0.00 | 0.00 | 73 | 1009.9 |
| 20260505120008 | 11 | 290 | 8.0 | 24.1 | 0.00 | 0.00 | 0.00 | 72 | 1009.9 |
| 20260505115005 | 11 | 297 | 11.3 | 25.7 | 0.00 | 0.00 | 0.00 | 72 | 1009.9 |
| 20260505114006 | 11 | 300 | 3.2 | 24.1 | 0.00 | 0.00 | 0.00 | 72 | 1009.9 |
| 20260505113008 | 11 | 275 | 9.7 | 22.5 | 0.00 | 0.00 | 0.00 | 73 | 1009.9 |
| 20260505112005 | 11 | 284 | 1.6 | 16.1 | 0.00 | 0.00 | 0.00 | 71 | 1009.9 |
| 20260505111005 | 11 | 300 | 0.0 | 16.1 | 0.00 | 0.00 | 0.00 | 74 | 1009.9 |
| 20260505102006 | 11 | 301 | 3.2 | 19.3 | 0.00 | 0.00 | 0.00 | 77 | 1010.1 |
| 20260505101005 | 11 | 305 | 9.7 | 20.9 | 0.00 | 0.00 | 0.00 | 76 | 1010.2 |
| 20260505100009 | 11 | 271 | 4.8 | 24.1 | 0.00 | 0.00 | 0.00 | 77 | 1010.3 |
| 20260505095005 | 11 | 293 | 3.2 | 14.5 | 0.00 | 0.00 | 0.00 | 79 | 1010.3 |
| 20260505094006 | 11 | 305 | 4.8 | 19.3 | 0.00 | 0.00 | 0.00 | 80 | 1010.3 |
| 20260505093007 | 11 | 292 | 1.6 | 19.3 | 0.00 | 0.00 | 0.00 | 79 | 1010.3 |
| 20260505092006 | 11 | 287 | 9.7 | 22.5 | 0.00 | 0.00 | 0.00 | 80 | 1010.3 |
| 20260505091005 | 11 | 301 | 4.8 | 22.5 | 0.00 | 0.00 | 0.00 | 80 | 1010.3 |
| 20260505090007 | 10 | 298 | 8.0 | 19.3 | 0.00 | 0.00 | 0.00 | 81 | 1010.2 |
| 20260505085006 | 10 | 299 | 9.7 | 20.9 | 0.00 | 0.00 | 0.00 | 80 | 1010.3 |
| 20260505084005 | 10 | 300 | 1.6 | 19.3 | 0.00 | 0.00 | 0.00 | 79 | 1010.2 |
| 20260505083007 | 10 | 291 | 8.0 | 20.9 | 0.00 | 0.00 | 0.00 | 80 | 1010.2 |
| 20260505082005 | 10 | 292 | 1.6 | 19.3 | 0.00 | 0.00 | 0.00 | 82 | 1010.0 |
| 20260505081005 | 10 | 292 | 6.4 | 24.1 | 0.00 | 0.00 | 0.00 | 81 | 1010.0 |
| 20260505080008 | 10 | 309 | 8.0 | 20.9 | 0.00 | 0.00 | 0.00 | 82 | 1009.9 |
| 20260505075005 | 9 | 318 | 11.3 | 25.7 | 0.00 | 0.00 | 0.00 | 81 | 1009.9 |
| 20260505074006 | 9 | 306 | 9.7 | 22.5 | 0.00 | 0.00 | 0.00 | 83 | 1009.9 |
| 20260505073007 | 9 | 312 | 12.9 | 29.0 | 0.00 | 0.00 | 0.00 | 82 | 1009.9 |
| 20260505072006 | 9 | 328 | 11.3 | 20.9 | 0.00 | 0.00 | 0.00 | 84 | 1009.8 |
| 20260505071005 | 9 | 334 | 16.1 | 27.4 | 0.00 | 0.00 | 0.00 | 83 | 1009.8 |
| 20260505070009 | 9 | 309 | 8.0 | 22.5 | 0.00 | 0.00 | 0.00 | 85 | 1009.8 |
| 20260505065005 | 8 | 324 | 4.8 | 20.9 | 0.00 | 0.00 | 0.00 | 85 | 1009.8 |
| 20260505064005 | 8 | 316 | 8.0 | 19.3 | 0.00 | 0.00 | 0.00 | 85 | 1009.8 |
| 20260505063008 | 8 | 303 | 1.6 | 19.3 | 0.00 | 0.00 | 0.00 | 85 | 1009.8 |
| 20260505062005 | 8 | 320 | 4.8 | 20.9 | 0.00 | 0.00 | 0.00 | 85 | 1009.8 |
| 20260505061005 | 8 | 334 | 8.0 | 19.3 | 0.00 | 0.00 | 0.00 | 85 | 1009.8 |